RYR919G EICK-LEGE

Flight info

Callsign RYR919G
Flight time N/A
Altitude 37000
Route ORTOM1N ORTOM DCT ARKIL DCT DOLUR DCT TERKU DCT KORER UM616 TUPAR DCT CNA DCT SECHE DCT GAI DCT PPG A27 KANIG
Aircraft B738/M-SDE3FGILRWY/SB1

Departure

Time N/A
Airport Cork International Airport (EICK)

Arrival

Time 2026-05-06 10:32
Airport Girona-Costa Brava Airport (LEGE)
Time Latitude Longitude Altitude Speed Heading
2026-05-06 09:20 47.88325 -3.13643 36956 ft 450 kts 114°
2026-05-06 09:21 47.87019 -3.09411 36969 ft 450 kts 114°
2026-05-06 09:21 47.84421 -3.01008 36954 ft 450 kts 114°
2026-05-06 09:22 47.81800 -2.92561 36968 ft 449 kts 114°
2026-05-06 09:22 47.79160 -2.84075 36959 ft 449 kts 114°
2026-05-06 09:23 47.76548 -2.75712 36941 ft 448 kts 114°
2026-05-06 09:23 47.73919 -2.67318 36941 ft 448 kts 114°
2026-05-06 09:24 47.71286 -2.58936 36932 ft 448 kts 114°
2026-05-06 09:24 47.68573 -2.50635 36944 ft 447 kts 121°
2026-05-06 09:25 47.64749 -2.43388 36950 ft 447 kts 131°
2026-05-06 09:25 47.61295 -2.37619 36952 ft 446 kts 131°
2026-05-06 09:26 47.57193 -2.30719 36949 ft 446 kts 130°
2026-05-06 09:26 47.53126 -2.23801 36946 ft 445 kts 130°
2026-05-06 09:27 47.49064 -2.16883 36936 ft 445 kts 130°
2026-05-06 09:27 47.45000 -2.09979 36946 ft 445 kts 130°
2026-05-06 09:28 47.40924 -2.03074 36947 ft 447 kts 130°
2026-05-06 09:28 47.36827 -1.96152 36928 ft 448 kts 130°
2026-05-06 09:29 47.32727 -1.89240 36941 ft 448 kts 130°
2026-05-06 09:29 47.28651 -1.82369 36942 ft 448 kts 130°
2026-05-06 09:30 47.24557 -1.75479 36942 ft 450 kts 130°
2026-05-06 09:30 47.20422 -1.68536 36944 ft 452 kts 131°
2026-05-06 09:31 47.16259 -1.61580 36934 ft 453 kts 132°
2026-05-06 09:31 47.11687 -1.55256 36941 ft 451 kts 139°
2026-05-06 09:32 47.06961 -1.49235 36934 ft 449 kts 139°
2026-05-06 09:32 47.02300 -1.43183 36938 ft 446 kts 138°
2026-05-06 09:33 46.97679 -1.37131 36928 ft 445 kts 138°
2026-05-06 09:33 46.93070 -1.31111 36940 ft 444 kts 138°
2026-05-06 09:34 46.88456 -1.25095 36938 ft 444 kts 138°
2026-05-06 09:34 46.83836 -1.19083 36948 ft 446 kts 139°
2026-05-06 09:35 46.79194 -1.13057 36929 ft 447 kts 139°
2026-05-06 09:35 46.74535 -1.07022 36931 ft 449 kts 139°
2026-05-06 09:36 46.69860 -1.00981 36930 ft 449 kts 139°
2026-05-06 09:36 46.65176 -0.94942 36914 ft 450 kts 139°
2026-05-06 09:37 46.60483 -0.88906 36914 ft 450 kts 139°
2026-05-06 09:37 46.55788 -0.82873 36915 ft 450 kts 139°
2026-05-06 09:38 46.51105 -0.76837 36912 ft 450 kts 139°
2026-05-06 09:38 46.46416 -0.70809 36913 ft 450 kts 139°
2026-05-06 09:39 46.41298 -0.65670 36913 ft 447 kts 156°
2026-05-06 09:39 46.35438 -0.62685 36899 ft 447 kts 164°
2026-05-06 09:40 46.29487 -0.60049 36896 ft 447 kts 164°
2026-05-06 09:40 46.20629 -0.56041 36890 ft 446 kts 163°
2026-05-06 09:41 46.14718 -0.53331 36888 ft 445 kts 163°
2026-05-06 09:41 46.08818 -0.50627 36898 ft 444 kts 163°
2026-05-06 09:42 46.02922 -0.47932 36903 ft 444 kts 163°
2026-05-06 09:42 45.97014 -0.45240 36886 ft 445 kts 163°
2026-05-06 09:43 45.91113 -0.42556 36886 ft 445 kts 163°
2026-05-06 09:43 45.85242 -0.39892 36888 ft 444 kts 163°
2026-05-06 09:44 45.79346 -0.37223 36887 ft 444 kts 163°
2026-05-06 09:44 45.73450 -0.34558 36887 ft 444 kts 163°
2026-05-06 09:45 45.67552 -0.31900 36912 ft 444 kts 163°
2026-05-06 09:45 45.61816 -0.28548 36920 ft 446 kts 155°
2026-05-06 09:46 45.56295 -0.24632 36903 ft 447 kts 155°
2026-05-06 09:46 45.50729 -0.20684 36907 ft 447 kts 155°
2026-05-06 09:47 45.45139 -0.16796 36907 ft 447 kts 155°
2026-05-06 09:47 45.39518 -0.12929 36888 ft 449 kts 155°
2026-05-06 09:48 45.33888 -0.09072 36888 ft 449 kts 156°
2026-05-06 09:48 45.28263 -0.05226 36894 ft 449 kts 156°
2026-05-06 09:49 45.22638 -0.01386 36906 ft 449 kts 156°
2026-05-06 09:49 45.17014 0.02445 36881 ft 448 kts 156°
2026-05-06 09:50 45.11399 0.06261 36896 ft 447 kts 156°
2026-05-06 09:50 45.05793 0.10064 36898 ft 446 kts 156°
2026-05-06 09:51 45.00196 0.13851 36897 ft 445 kts 156°
2026-05-06 09:51 44.94609 0.17624 36908 ft 445 kts 157°
2026-05-06 09:52 44.89030 0.21383 36913 ft 444 kts 157°
2026-05-06 09:52 44.83447 0.25136 36907 ft 444 kts 157°
2026-05-06 09:53 44.77880 0.28870 36916 ft 444 kts 157°
2026-05-06 09:53 44.72291 0.32612 36912 ft 445 kts 157°
2026-05-06 09:54 44.66702 0.36346 36913 ft 445 kts 157°
2026-05-06 09:54 44.61103 0.40078 36908 ft 446 kts 157°
2026-05-06 09:55 44.55492 0.43812 36926 ft 447 kts 157°
2026-05-06 09:55 44.49860 0.47551 36918 ft 449 kts 157°
2026-05-06 09:56 44.44544 0.52140 36925 ft 455 kts 138°
2026-05-06 09:56 44.42457 0.55479 36923 ft 458 kts 126°
2026-05-06 09:56 44.40893 0.59287 36928 ft 460 kts 119°
2026-05-06 09:57 44.38049 0.67308 36918 ft 460 kts 118°
2026-05-06 09:57 44.35205 0.75336 36926 ft 460 kts 118°
2026-05-06 09:58 44.32297 0.83369 36919 ft 461 kts 119°
2026-05-06 09:58 44.29378 0.91335 36940 ft 461 kts 119°
2026-05-06 09:59 44.26470 0.99240 36936 ft 461 kts 119°
2026-05-06 09:59 44.23546 1.07168 36928 ft 461 kts 120°
2026-05-06 10:00 44.20607 1.15118 36939 ft 462 kts 120°
2026-05-06 10:00 44.17659 1.23069 36944 ft 462 kts 120°
2026-05-06 10:01 44.14703 1.31021 36924 ft 462 kts 120°
2026-05-06 10:01 44.11747 1.38951 36943 ft 461 kts 120°
2026-05-06 10:02 44.08788 1.46864 36932 ft 461 kts 120°
2026-05-06 10:02 44.05829 1.54757 36940 ft 460 kts 121°
2026-05-06 10:03 44.02870 1.62627 36947 ft 459 kts 121°
2026-05-06 10:03 43.99906 1.70492 36940 ft 459 kts 121°
2026-05-06 10:04 43.98419 1.74425 36713 ft 462 kts 121°
2026-05-06 10:04 43.96868 1.78304 36400 ft 455 kts 127°
2026-05-06 10:04 43.94953 1.81737 36008 ft 445 kts 137°
2026-05-06 10:04 43.92739 1.84675 35621 ft 437 kts 145°
2026-05-06 10:05 43.90281 1.87088 35217 ft 430 kts 152°
2026-05-06 10:05 43.87763 1.89288 34830 ft 427 kts 153°
2026-05-06 10:05 43.85251 1.91464 34412 ft 425 kts 153°
2026-05-06 10:05 43.82756 1.93629 34034 ft 422 kts 153°
2026-05-06 10:06 43.80272 1.95792 33555 ft 421 kts 154°
2026-05-06 10:06 43.77806 1.97950 33157 ft 417 kts 154°
2026-05-06 10:06 43.75368 2.00090 32763 ft 414 kts 154°
2026-05-06 10:06 43.72945 2.02220 32384 ft 411 kts 154°
2026-05-06 10:07 43.70546 2.04328 32004 ft 407 kts 154°
2026-05-06 10:07 43.68165 2.06420 31636 ft 404 kts 154°
2026-05-06 10:07 43.66564 2.07825 31384 ft 402 kts 155°
2026-05-06 10:07 43.64211 2.09888 31026 ft 399 kts 155°
2026-05-06 10:08 43.61872 2.11936 30664 ft 397 kts 155°
2026-05-06 10:08 43.59553 2.13967 30290 ft 394 kts 156°
2026-05-06 10:08 43.57246 2.15984 29925 ft 391 kts 156°
2026-05-06 10:08 43.54954 2.17985 29523 ft 388 kts 156°
2026-05-06 10:09 43.52687 2.19965 29128 ft 384 kts 156°
2026-05-06 10:09 43.50440 2.21924 28749 ft 380 kts 156°
2026-05-06 10:09 43.48250 2.23833 28394 ft 376 kts 155°
2026-05-06 10:09 43.46043 2.25752 28008 ft 374 kts 155°
2026-05-06 10:10 43.43851 2.27657 27630 ft 371 kts 155°
2026-05-06 10:10 43.41674 2.29547 27251 ft 369 kts 155°
2026-05-06 10:10 43.39519 2.31419 26895 ft 365 kts 156°
2026-05-06 10:10 43.37386 2.33271 26518 ft 361 kts 155°
2026-05-06 10:11 43.35276 2.35101 26181 ft 357 kts 155°
2026-05-06 10:11 43.33183 2.36912 25838 ft 354 kts 155°
2026-05-06 10:11 43.31104 2.38708 25485 ft 352 kts 155°
2026-05-06 10:11 43.29037 2.40492 25140 ft 350 kts 154°
2026-05-06 10:12 43.26984 2.42264 24807 ft 348 kts 154°
2026-05-06 10:12 43.24935 2.44032 24464 ft 347 kts 154°
2026-05-06 10:12 43.22892 2.45793 24119 ft 346 kts 154°
2026-05-06 10:12 43.20858 2.47545 23772 ft 345 kts 153°
2026-05-06 10:13 43.18818 2.49300 23386 ft 344 kts 153°
2026-05-06 10:13 43.16796 2.51040 23005 ft 343 kts 153°
2026-05-06 10:13 43.14781 2.52774 22638 ft 341 kts 153°
2026-05-06 10:13 43.12780 2.54493 22281 ft 339 kts 153°
2026-05-06 10:14 43.10817 2.56178 21949 ft 336 kts 153°
2026-05-06 10:14 43.08840 2.57874 21616 ft 334 kts 153°
2026-05-06 10:14 43.06874 2.59559 21276 ft 332 kts 153°
2026-05-06 10:14 43.04917 2.61234 20945 ft 330 kts 153°
2026-05-06 10:15 43.02976 2.62895 20614 ft 328 kts 153°
2026-05-06 10:15 43.01043 2.64548 20284 ft 327 kts 153°
2026-05-06 10:15 42.99120 2.66192 19957 ft 325 kts 153°
2026-05-06 10:15 42.97210 2.67822 19618 ft 323 kts 154°
2026-05-06 10:16 42.95308 2.69444 19315 ft 321 kts 154°
2026-05-06 10:16 42.93419 2.71055 18992 ft 320 kts 153°
2026-05-06 10:16 42.91533 2.72661 18679 ft 319 kts 153°
2026-05-06 10:16 42.89676 2.74241 18355 ft 318 kts 153°
2026-05-06 10:17 42.87798 2.75839 18020 ft 318 kts 152°
2026-05-06 10:17 42.85926 2.77430 17657 ft 317 kts 152°
2026-05-06 10:17 42.84059 2.79017 17329 ft 315 kts 152°
2026-05-06 10:17 42.82205 2.80592 17007 ft 314 kts 152°
2026-05-06 10:18 42.80359 2.82159 16683 ft 311 kts 152°
2026-05-06 10:18 42.78533 2.83707 16378 ft 309 kts 152°
2026-05-06 10:18 42.76711 2.85249 16060 ft 307 kts 152°
2026-05-06 10:18 42.74889 2.86738 15748 ft 304 kts 158°
2026-05-06 10:19 42.72932 2.87761 15376 ft 300 kts 167°
2026-05-06 10:19 42.70936 2.88587 15060 ft 299 kts 167°
2026-05-06 10:19 42.68948 2.89395 14744 ft 298 kts 167°
2026-05-06 10:19 42.66963 2.90212 14439 ft 297 kts 167°
2026-05-06 10:20 42.64987 2.91038 14127 ft 297 kts 167°
2026-05-06 10:20 42.63017 2.91872 13820 ft 296 kts 166°
2026-05-06 10:20 42.61052 2.92709 13481 ft 296 kts 166°
2026-05-06 10:20 42.59091 2.93547 13159 ft 295 kts 166°
2026-05-06 10:21 42.57137 2.94385 12826 ft 294 kts 166°
2026-05-06 10:21 42.55194 2.95218 12518 ft 292 kts 166°
2026-05-06 10:21 42.53260 2.96047 12216 ft 290 kts 166°
2026-05-06 10:21 42.51339 2.96870 11927 ft 289 kts 166°
2026-05-06 10:22 42.49428 2.97687 11630 ft 288 kts 167°
2026-05-06 10:22 42.47484 2.98037 11305 ft 279 kts 191°
2026-05-06 10:22 42.45617 2.97461 11044 ft 274 kts 199°
2026-05-06 10:22 42.43814 2.96754 10755 ft 273 kts 199°
2026-05-06 10:23 42.41995 2.96025 10460 ft 273 kts 199°
2026-05-06 10:23 42.40178 2.95301 10165 ft 271 kts 199°
2026-05-06 10:23 42.38385 2.94595 10033 ft 264 kts 199°
2026-05-06 10:23 42.36631 2.93909 9764 ft 262 kts 199°
2026-05-06 10:24 42.34884 2.93228 9492 ft 260 kts 199°
2026-05-06 10:24 42.33154 2.92556 9206 ft 258 kts 199°
2026-05-06 10:24 42.31431 2.91889 8932 ft 256 kts 199°
2026-05-06 10:24 42.29720 2.91228 8649 ft 255 kts 199°
2026-05-06 10:25 42.28020 2.90572 8380 ft 253 kts 199°
2026-05-06 10:25 42.26331 2.89921 8110 ft 252 kts 199°
2026-05-06 10:25 42.24645 2.89271 7736 ft 255 kts 198°
2026-05-06 10:25 42.22915 2.88604 7272 ft 262 kts 198°
2026-05-06 10:26 42.21143 2.87923 6798 ft 268 kts 198°
2026-05-06 10:26 42.19327 2.87189 6201 ft 278 kts 198°
2026-05-06 10:26 42.17470 2.86448 5804 ft 279 kts 198°
2026-05-06 10:26 42.15600 2.85729 5405 ft 279 kts 197°
2026-05-06 10:27 42.13734 2.85022 5017 ft 279 kts 197°
2026-05-06 10:27 42.11880 2.84321 4638 ft 272 kts 197°
2026-05-06 10:27 42.10089 2.83642 4268 ft 263 kts 196°
2026-05-06 10:27 42.08363 2.82987 3917 ft 250 kts 196°
2026-05-06 10:28 42.06752 2.82376 3602 ft 230 kts 196°
2026-05-06 10:28 42.05303 2.81825 3312 ft 209 kts 195°
2026-05-06 10:28 42.03967 2.81318 3048 ft 191 kts 195°
2026-05-06 10:28 42.02744 2.80854 2818 ft 175 kts 195°
2026-05-06 10:29 42.01623 2.80428 2572 ft 161 kts 195°
2026-05-06 10:29 42.00599 2.80039 2399 ft 145 kts 195°
2026-05-06 10:29 41.99654 2.79681 2185 ft 140 kts 195°
2026-05-06 10:29 41.98713 2.79324 2002 ft 139 kts 195°
2026-05-06 10:30 41.97786 2.78972 1806 ft 139 kts 195°
2026-05-06 10:30 41.96842 2.78614 1635 ft 142 kts 195°
2026-05-06 10:30 41.95894 2.78254 1420 ft 141 kts 195°
2026-05-06 10:30 41.94969 2.77902 1230 ft 134 kts 194°
2026-05-06 10:31 41.94094 2.77572 1057 ft 129 kts 194°
2026-05-06 10:31 41.93244 2.77241 896 ft 127 kts 197°
2026-05-06 10:31 41.92403 2.76927 724 ft 126 kts 195°
2026-05-06 10:31 41.91522 2.76596 542 ft 134 kts 195°
2026-05-06 10:32 41.90668 2.76275 457 ft 116 kts 197°
2026-05-06 10:32 41.90034 2.76034 421 ft 74 kts 195°
2026-05-06 10:32 41.89685 2.75902 399 ft 31 kts 196°
2026-05-06 10:32 41.89587 2.75865 398 ft 9 kts 195°
2026-05-06 10:33 41.89515 2.75856 394 ft 12 kts 155°
2026-05-06 10:33 41.89481 2.75953 393 ft 12 kts 106°
2026-05-06 10:33 41.89502 2.76052 396 ft 11 kts 46°
2026-05-06 10:33 41.89573 2.76090 399 ft 11 kts 16°
2026-05-06 10:34 41.89647 2.76118 403 ft 11 kts 15°
2026-05-06 10:34 41.89717 2.76145 407 ft 10 kts 15°
2026-05-06 10:34 41.89787 2.76170 411 ft 10 kts 15°
2026-05-06 10:34 41.89854 2.76195 411 ft 10 kts 15°
2026-05-06 10:35 41.89908 2.76234 414 ft 8 kts 75°
2026-05-06 10:35 41.89898 2.76306 414 ft 8 kts 105°
2026-05-06 10:35 41.89880 2.76372 416 ft 7 kts 122°
2026-05-06 10:35 41.89859 2.76435 410 ft 7 kts 104°
2026-05-06 10:36 41.89851 2.76472 414 ft 2 kts 107°
2026-05-06 10:36 41.89849 2.76481 415 ft 1 kts 106°
2026-05-06 10:36 41.89849 2.76485 416 ft 0 kts 106°